This demonstration page uses our WeatherBlox Daily Observations layout. Learn more.

Left ArrowRight Arrow

Hourly Observations for March 16, 2020

Temp ( °F °C ) Dew Point ( °F °C ) Humidity (%) Winds ( mph kmh ) Pressure ( in mb ) Visibility ( mi km ) Precip ( " mm )
12:15 am 00:15 Cloudy N/A N/A N/A N N/A N/A 10 16 N/A
12:35 am 00:35 Cloudy 39 3.8 32 undefined 77 77 E 5 7 30.49 1033 10 16 N/A
1:10 am 01:10 Cloudy N/A N/A N/A N N/A N/A 10 16 N/A
2:55 am 02:55 Cloudy N/A N/A N/A N N/A N/A 10 16 N/A
3:15 am 03:15 Cloudy 38 3.2 32 undefined 80 80 N N/A 30.43 1031 10 16 N/A
3:35 am 03:35 Cloudy 38 3.1 32 undefined 80 80 N N/A 30.43 1031 10 16 N/A
4:15 am 04:15 Cloudy 37 3 32 undefined 81 81 N N/A 30.42 1030 10 16 N/A
4:35 am 04:35 Cloudy 37 3 32 undefined 81 81 N N/A 30.41 1030 10 16 N/A
4:55 am 04:55 Cloudy 37 2.9 32 -0.1 81 81 ENE 7 11 30.39 1029 10 16 N/A
5:15 am 05:15 Cloudy 37 2.7 31 -0.4 80 80 E 5 7 30.40 1030 10 16 N/A
5:35 am 05:35 Cloudy 37 2.7 31 -0.4 80 80 E 3 6 30.39 1029 10 16 N/A
5:55 am 05:55 Cloudy 37 2.7 31 -0.3 81 81 E 6 9 30.38 1029 10 16 N/A
6:15 am 06:15 Cloudy 37 2.7 31 -0.6 79 79 E 5 7 30.39 1029 10 16 N/A
6:35 am 06:35 Cloudy 37 2.6 31 -0.5 80 80 N N/A 30.40 1030 10 16 N/A
6:55 am 06:55 Cloudy 37 2.7 31 -0.5 80 80 N N/A 30.41 1030 10 16 N/A
7:15 am 07:15 Cloudy 37 2.6 31 -0.4 81 81 N N/A 30.43 1030 10 16 N/A
7:50 am 07:50 Cloudy 37 2.6 31 -0.3 81 81 N N/A 30.43 1030 10 16 N/A
8:15 am 08:15 Cloudy 37 2.6 31 -0.4 81 81 N N/A 30.40 1030 10 16 N/A
9:35 am 09:35 Cloudy 37 3 32 -0.2 80 80 N N/A 30.38 1029 10 16 N/A
9:55 am 09:55 Cloudy 38 3.2 32 -0.1 79 79 N N/A 30.38 1029 10 16 N/A
10:15 am 10:15 Cloudy 38 3.5 32 -0.1 78 78 N N/A 30.39 1029 10 16 N/A
10:35 am 10:35 Cloudy 39 4 32 undefined 75 75 SSE 6 9 30.38 1029 10 16 N/A
10:55 am 10:55 Cloudy 39 4.1 32 0.1 75 75 N N/A 30.38 1029 10 16 N/A
11:15 am 11:15 Cloudy 40 4.5 33 0.6 76 76 SSE 3 6 30.38 1029 10 16 N/A
11:35 am 11:35 Cloudy 41 5.1 34 1.1 76 76 SSW 3 6 30.38 1029 10 16 N/A
11:55 am 11:55 Mostly Cloudy 41 5.2 34 1 75 75 SSW 3 6 30.36 1028 10 16 N/A
12:15 pm 12:15 Mostly Cloudy 42 5.7 34 1 72 72 N N/A 30.34 1028 10 16 N/A
12:35 pm 12:35 Cloudy 43 6.2 34 1.2 71 71 S 3 6 30.33 1027 10 16 N/A
12:55 pm 12:55 Cloudy 43 6.2 34 1.1 70 70 N N/A 30.33 1027 10 16 N/A
1:15 pm 13:15 Cloudy 44 6.5 34 1.2 69 69 S 6 9 30.32 1027 10 16 N/A
1:35 pm 13:35 Mostly Cloudy 44 6.8 35 1.4 69 69 SE 9 15 30.29 1026 10 16 N/A
1:50 pm 13:50 Mostly Cloudy 44 6.5 34 1 68 68 SE 5 7 30.29 1026 10 16 N/A
2:15 pm 14:15 Cloudy 44 6.7 34 1 67 67 SSE 7 11 30.26 1025 10 16 N/A
2:35 pm 14:35 Cloudy 44 6.8 34 1.1 67 67 SE 7 11 30.26 1025 10 16 N/A
2:55 pm 14:55 Cloudy 45 7 35 1.4 68 68 S 7 11 30.25 1024 10 16 N/A
3:15 pm 15:15 Cloudy 45 7 35 1.5 68 68 S 9 15 30.26 1025 10 16 N/A
3:35 pm 15:35 Cloudy 45 7.1 35 1.9 70 70 N N/A 30.25 1024 10 16 N/A
3:55 pm 15:55 Cloudy 45 7.2 35 1.8 69 69 SSW 7 11 30.25 1024 10 16 N/A
4:15 pm 16:15 Cloudy 46 7.7 35 1.9 67 67 N N/A 30.23 1024 10 16 N/A
4:35 pm 16:35 Cloudy 46 7.7 35 1.5 65 65 SW 5 7 30.24 1024 10 16 N/A
4:55 pm 16:55 Cloudy 46 7.8 35 1.7 66 66 SW 6 9 30.23 1024 10 16 N/A
5:15 pm 17:15 Cloudy 46 7.7 35 1.6 66 66 SW 6 9 30.22 1023 10 16 N/A
5:35 pm 17:35 Cloudy 46 7.8 35 1.4 64 64 SW 6 9 30.22 1023 10 16 N/A
5:55 pm 17:55 Cloudy 46 7.9 35 1.5 64 64 N N/A 30.20 1023 10 16 N/A
6:15 pm 18:15 Cloudy 46 7.7 35 1.7 66 66 SSW 9 15 30.21 1023 10 16 N/A
6:35 pm 18:35 Cloudy 46 7.5 35 1.7 67 67 WSW 7 11 30.21 1023 10 16 N/A
6:55 pm 18:55 Cloudy 45 7.2 36 2.4 72 72 WSW 5 7 30.20 1023 10 16 N/A
7:15 pm 19:15 Cloudy 44 6.5 38 3.2 80 80 SW 5 7 30.20 1023 10 16 N/A
7:35 pm 19:35 Cloudy 43 6.3 39 3.8 84 84 N N/A 30.21 1023 10 16 N/A
7:55 pm 19:55 Cloudy 43 6 40 4.2 88 88 N N/A 30.22 1023 10 16 N/A
8:15 pm 20:15 Cloudy 43 6 39 4.1 88 88 NW 5 7 30.23 1024 10 16 N/A
8:35 pm 20:35 Cloudy 42 5.7 39 3.8 88 88 N N/A 30.22 1024 10 16 N/A
8:55 pm 20:55 Cloudy 42 5.7 39 3.8 88 88 N N/A 30.22 1024 10 16 N/A
9:20 pm 21:20 Cloudy 42 5.7 39 4.1 90 90 N N/A 30.22 1024 10 16 N/A
9:50 pm 21:50 Cloudy 42 5.5 39 4 90 90 W 3 6 30.23 1024 10 16 N/A
10:15 pm 22:15 Cloudy 42 5.3 39 4 91 91 N N/A 30.23 1024 10 16 N/A
10:35 pm 22:35 Cloudy 42 5.3 39 4 91 91 N N/A 30.23 1024 10 16 N/A
10:50 pm 22:50 Cloudy 42 5.3 39 4 91 91 N N/A 30.22 1023 10 16 N/A
11:15 pm 23:15 Cloudy 42 5.3 39 3.9 91 91 N N/A 30.22 1023 10 16 N/A
11:40 pm 23:40 Cloudy 42 5.3 39 3.9 91 91 N N/A 30.21 1023 10 16 N/A
11:55 pm 23:55 Cloudy 41 5.2 39 4 92 92 N N/A 30.21 1023 10 16 N/A

Powered by AerisWeather